Wind_Speed
26 28 31 31 31 36 39 33 32 30 30 25 21 18 17 17 18 19 19 19 21 24 27 29 29 28 28 27 28 37 33 31
23 26 29 32 30 36 36 34 34 34 28 26 22 19 18 19 20 21 20 21 23 26 28 29 32 29 30 35 26 34 29 32
25 26 29 32 36 38 38 33 34 33 28 26 24 21 18 20 22 23 21 23 26 29 31 32 32 31 34 34 32 29 34 37
26 26 30 31 40 40 40 38 35 32 30 28 25 22 20 22 23 24 23 24 26 30 32 34 37 33 36 37 40 36 33 36
26 25 30 31 39 39 41 39 36 31 29 27 25 21 22 23 24 23 24 23 21 23 27 32 38 39 38 43 42 40 35 43
24 24 28 31 34 42 43 40 34 29 27 26 23 22 23 24 22 21 17 16 17 15 18 33 38 37 39 40 50 39 36 36
18 22 26 28 34 44 45 41 33 27 26 27 21 21 23 24 19 15 15 16 17 13 12 12 24 33 37 41 39 39 40 35
12 16 21 23 31 43 46 42 36 27 27 26 20 20 20 21 15 14 15 17 16 13 10 7 19 27 27 30 43 40 40 36
18 15 13 21 32 39 47 40 35 28 30 24 21 21 18 18 12 13 16 15 13 12 13 8 12 17 24 32 40 41 39 38
17 21 11 22 30 38 38 41 38 32 30 25 22 20 16 14 12 13 15 12 12 12 10 12 9 18 16 20 26 36 43 41
17 18 15 14 31 34 34 35 33 36 30 26 22 19 14 13 13 11 11 9 7 9 11 14 11 10 19 26 29 36 39 41
19 17 20 18 25 26 29 31 37 36 32 28 22 17 14 13 13 11 10 7 6 6 6 10 12 10 14 16 19 31 25 27
18 16 19 21 19 23 20 31 35 35 33 29 22 17 15 13 13 12 10 7 5 3 4 10 12 10 10 21 15 15 20 16
15 14 17 20 22 22 32 27 30 35 35 31 25 20 17 16 15 14 13 10 7 5 5 7 8 9 9 13 21 15 18 22
14 12 16 17 19 27 32 24 26 35 36 32 26 23 20 19 18 17 15 13 11 9 7 7 9 10 12 13 15 15 18 19
13 12 15 18 18 24 32 33 33 38 39 36 31 25 24 23 23 21 20 18 16 14 12 12 12 9 10 12 14 15 15 13
12 15 15 19 25 35 29 29 33 40 42 37 31 27 26 24 24 24 22 20 18 17 15 15 13 12 12 13 16 19 20 22
10 17 19 21 22 23 26 29 35 39 40 36 32 29 28 27 27 26 23 21 19 18 16 14 13 13 13 15 18 21 23 25
12 15 21 25 26 25 29 31 36 36 36 33 32 29 28 27 28 26 25 23 20 19 17 16 15 14 13 14 17 19 20 22
Wind_Direction
236 229 225 228 226 230 232 224 230 232 238 245 255 271 279 288 271 262 255 244 239 235 233 232 231 223 227 225 217 208 191 210
240 228 220 223 221 223 221 226 230 233 240 247 253 267 276 284 271 261 254 247 237 237 237 236 238 228 224 219 226 216 192 209
237 226 217 227 223 223 222 229 231 235 241 248 252 265 278 282 269 264 258 247 239 238 240 240 237 230 226 221 220 218 199 207
233 229 218 235 222 224 224 230 234 236 240 245 249 262 279 280 270 266 263 255 246 242 241 239 241 235 228 218 217 213 230 205
232 229 224 230 228 222 222 229 235 237 238 241 246 261 278 279 274 270 261 254 247 249 249 245 242 244 234 222 219 224 221 208
235 231 228 225 236 223 222 227 232 237 237 235 240 259 275 276 275 265 254 238 234 250 263 249 244 241 237 217 219 217 221 205
225 228 224 227 227 227 221 226 233 238 235 227 236 258 273 275 269 266 243 239 242 264 296 259 223 227 223 226 217 219 213 203
209 244 229 217 221 230 221 222 234 240 223 222 234 257 268 270 267 254 238 240 243 250 266 299 224 215 219 218 208 210 210 208
228 211 229 214 218 230 220 222 233 238 216 219 233 256 265 269 260 244 239 241 247 256 248 256 213 196 216 217 207 222 214 204
235 235 227 224 221 230 226 224 229 219 212 220 230 252 257 265 257 235 238 250 266 270 247 220 208 202 226 194 201 215 209 205
246 245 229 221 225 223 220 213 211 206 210 218 228 246 247 255 251 244 240 250 260 278 273 232 213 202 198 225 217 202 211 221
245 243 234 206 215 203 197 197 203 205 211 214 225 241 240 242 237 230 233 239 250 285 254 209 219 219 222 215 208 212 222 224
242 235 228 203 204 189 197 204 206 206 208 214 222 233 236 227 230 222 222 216 211 216 180 210 218 221 230 209 189 212 219 220
240 225 226 203 189 209 217 223 215 211 209 215 219 228 225 219 216 215 212 212 206 197 166 173 199 219 205 207 205 214 224 218
245 232 230 219 199 201 215 215 217 214 211 211 214 222 220 214 212 211 210 211 211 208 202 187 187 188 191 195 206 221 219 229
239 238 233 227 210 228 218 220 221 210 213 211 212 218 221 217 214 212 212 214 215 214 216 216 216 215 210 206 211 219 227 230
236 232 238 230 215 228 223 212 214 210 211 210 207 214 218 217 218 220 220 221 224 226 227 232 239 241 242 242 240 238 242 236
296 236 227 223 214 209 211 209 206 214 212 207 208 212 216 218 219 220 220 221 222 221 216 212 214 223 231 240 246 249 252 254
318 244 224 217 209 205 205 209 205 211 212 207 206 211 214 217 224 222 221 215 215 229 230 226 220 222 232 246 252 255 258 258
Height
3045 3047 3052 3056 3058 3057 3060 3064 3068 3070 3070 3073 3073 3074 3072 3070 3071 3071 3070 3071 3073 3076 3078 3080 3082 3086 3089 3091 3093 3098 3102 3107
3038 3041 3045 3048 3049 3050 3054 3058 3061 3064 3066 3068 3069 3070 3068 3068 3068 3068 3067 3067 3069 3071 3073 3074 3076 3081 3085 3089 3091 3094 3099 3106
3031 3035 3039 3037 3041 3045 3049 3053 3056 3059 3062 3064 3065 3065 3064 3064 3064 3064 3062 3062 3063 3065 3066 3068 3071 3076 3079 3083 3085 3090 3095 3100
3025 3028 3032 3030 3034 3039 3044 3047 3050 3053 3057 3058 3060 3061 3060 3060 3059 3058 3056 3056 3057 3058 3060 3062 3064 3068 3073 3077 3081 3085 3090 3094
3018 3022 3026 3027 3028 3032 3037 3040 3044 3048 3051 3054 3056 3056 3055 3055 3053 3051 3050 3050 3051 3052 3054 3056 3058 3061 3065 3070 3075 3080 3084 3089
3011 3015 3019 3023 3022 3025 3030 3034 3038 3043 3046 3049 3051 3051 3050 3049 3049 3046 3045 3046 3047 3048 3047 3046 3049 3050 3055 3061 3069 3074 3080 3087
3005 3007 3011 3016 3017 3017 3022 3028 3032 3038 3041 3045 3046 3047 3047 3045 3045 3041 3042 3043 3044 3044 3041 3038 3041 3044 3049 3055 3063 3069 3075 3083
2996 3001 3005 3008 3009 3009 3015 3022 3027 3033 3036 3040 3042 3043 3043 3041 3039 3039 3039 3040 3041 3041 3039 3037 3035 3039 3045 3051 3058 3065 3071 3078
2990 2991 2997 3000 3003 3003 3008 3017 3022 3028 3032 3036 3038 3040 3040 3038 3036 3037 3038 3038 3038 3038 3037 3037 3036 3038 3042 3047 3053 3060 3066 3074
2988 2989 2991 2993 2995 2996 3004 3011 3018 3024 3028 3031 3034 3036 3036 3034 3033 3035 3036 3036 3036 3035 3035 3036 3037 3038 3041 3044 3050 3056 3063 3069
2983 2985 2985 2987 2986 2993 2999 3005 3012 3018 3023 3027 3030 3032 3033 3032 3032 3032 3033 3033 3034 3033 3033 3034 3037 3038 3041 3045 3049 3054 3059 3065
2980 2981 2982 2980 2984 2990 2995 3001 3008 3013 3018 3022 3026 3028 3030 3030 3030 3030 3031 3031 3031 3031 3031 3032 3036 3038 3041 3045 3047 3053 3057 3061
2976 2977 2977 2978 2983 2987 2993 2999 3003 3008 3012 3017 3021 3024 3026 3027 3029 3029 3029 3030 3031 3031 3030 3033 3035 3038 3040 3043 3048 3052 3056 3059
2973 2974 2975 2976 2979 2986 2994 2996 3000 3003 3008 3012 3016 3020 3022 3024 3026 3027 3028 3029 3029 3030 3031 3032 3034 3036 3038 3041 3045 3050 3053 3057
2970 2972 2973 2975 2977 2983 2988 2991 2995 2999 3003 3007 3011 3015 3018 3020 3023 3025 3026 3028 3029 3030 3031 3033 3034 3035 3038 3040 3044 3047 3050 3053
2967 2970 2972 2973 2974 2979 2983 2986 2988 2992 2998 3001 3005 3010 3013 3015 3018 3020 3023 3024 3026 3028 3030 3031 3032 3034 3036 3039 3041 3043 3046 3049
2964 2967 2970 2971 2972 2975 2979 2981 2985 2988 2992 2997 3001 3005 3008 3012 3014 3017 3020 3022 3024 3026 3028 3029 3031 3032 3034 3036 3039 3041 3042 3043
2962 2964 2967 2969 2971 2973 2975 2979 2982 2985 2988 2993 2997 3000 3003 3007 3010 3013 3016 3018 3020 3022 3024 3026 3028 3030 3032 3033 3035 3036 3038 3039
2961 2961 2964 2965 2968 2969 2972 2976 2978 2981 2985 2989 2991 2995 2998 3001 3005 3008 3010 3013 3015 3018 3020 3022 3023 3025 3027 3029 3030 3030 3031 3033